[[{"header":{"parameterUnit":"m.s-1","parameterCategory":1,"la1":30.2992,"la2":30.254,"lo1":-89.0895,"lo2":-89.0443,"dy":0.0025,"dx":0.0025,"nx":19,"ny":19,"refTime":"2026-04-19T03:00:00:Z","depth":0,"parameterNumber":2,"parameterNumberName":"U-component_of_WINDS"},"data":[0,0,0,-3.6017,-3.6021,-3.619,-3.619,-3.6454,-3.6457,0,0,0,0,0,0,0,0,0,0,0,-3.5995,-3.5998,-3.6017,-3.6022,-3.619,-3.619,-3.6453,-3.6457,0,0,0,0,0,0,0,0,0,0,0,-3.5994,-3.5997,-3.6001,-3.6022,-3.619,-3.619,-3.6453,-3.6309,0,0,0,0,0,0,0,0,0,0,-3.6137,-3.6144,-3.5996,-3.6001,-3.6024,-3.619,-3.619,-3.6301,-3.6318,-3.6398,0,-3.6476,0,-3.647,-3.6477,-3.6478,0,0,0,-3.6001,-3.6131,-3.615,-3.6001,-3.6025,-3.619,-3.6108,-3.631,-3.6329,-3.642,-3.6479,-3.6487,-3.6475,-3.6479,-3.6481,-3.7011,-3.7014,0,0,-3.5992,-3.6041,-3.6137,-3.6164,-3.614,-3.6103,-3.6114,-3.632,-3.6388,-3.648,-3.6493,-3.6479,-3.6481,-3.6484,-3.7007,-3.7012,0,0,0,-3.5979,-3.6036,-3.6049,-3.6154,-3.6181,-3.6108,-3.6121,-3.6379,-3.6379,-3.6495,-3.6482,-3.6483,-3.6487,-3.7004,-3.7009,-3.7232,0,0,0,-3.5972,-3.6028,-3.6046,-3.6078,-3.6178,-3.6282,-3.6176,-3.6365,-3.6386,-3.6481,-3.6483,-3.649,-3.7,-3.7006,-3.7218,-3.7332,0,0,0,-3.5975,-3.6028,-3.6062,-3.6081,-3.6155,-3.6277,-3.6289,-3.6368,-3.638,-3.6479,-3.6491,-3.6997,-3.7005,-3.7205,-3.731,-3.749,0,0,0,-3.5992,-3.6256,-3.6066,-3.6355,-3.6154,-3.6412,-3.6287,-3.6476,-3.6587,-3.6485,-3.7,-3.7008,-3.7201,-3.7297,-3.7476,-3.7655,-3.7732,0,0,-3.6353,-3.6301,-3.6467,-3.6302,-3.6608,-3.6382,-3.672,-3.6774,-3.6737,-3.6922,-3.6934,-3.7222,-3.7308,-3.7487,-3.8135,-3.8197,0,0,0,-3.6599,-3.672,-3.679,-3.6897,-3.6944,-3.6995,-3.699,-3.701,-3.7165,-3.6842,-3.733,-3.738,-3.7483,-3.7566,-3.7619,-3.7707,-3.7047,-3.7046,-3.7045,-3.7187,-3.7124,-3.7397,-3.7356,-3.7461,-3.7454,-3.7535,-3.756,-3.7466,-3.7582,-3.764,-3.8041,-3.814,-3.8179,-3.8271,-3.7722,-3.7723,-3.7724,-3.7725,-3.7716,-3.7881,-3.7747,-3.7965,-3.7897,-3.8079,-3.8081,-3.8009,-3.817,-3.7992,-3.8079,-3.7898,-3.8249,-3.8326,-3.7741,-3.7738,-3.7736,-3.7734,-3.7733,-3.8101,-3.8169,-3.8187,-3.8336,-3.8458,-3.8404,-3.8566,-3.8496,-3.8432,-3.8518,-3.8574,-3.8571,-3.8564,-3.8548,-3.8549,-3.8551,-3.8552,-3.8553,-3.8554,-3.8497,-3.8509,-3.8654,-3.8724,-3.8784,-3.8855,-3.8848,-3.8905,-3.8952,-3.8889,-3.889,-3.8789,-3.8291,-3.8173,-3.8575,-3.8571,-3.8569,-3.8567,-3.8565,-3.9071,-3.8929,-3.9153,-3.9214,-3.9291,-3.9419,-3.9325,-3.9449,-3.9485,-3.9568,-3.9445,-3.9087,-3.903,-3.8988,-3.889,-3.9453,-3.9453,-3.9453,-3.9453,-3.9402,-3.9363,-3.9578,-3.968,-3.977,-3.9708,-3.9966,-3.9962,-3.9936,-3.9956,-3.9862,-3.9722,-3.9682,-3.9649,-3.9593,-3.9501,-4.0207,-4.0208,-4.0209,-3.9755,-3.9721,-3.9956,-3.9926,-3.9981,-4.003,-4.0271,-4.0395,-4.0334,-4.0238,-3.9971,-3.9939,-3.9713,-3.9642,-3.9549,-3.9463,-3.9292,0,0]},{"header":{"parameterUnit":"m.s-1","parameterCategory":1,"la1":30.2992,"la2":30.254,"lo1":-89.0895,"lo2":-89.0443,"dy":0.0025,"dx":0.0025,"nx":19,"ny":19,"refTime":"2026-04-19T03:00:00:Z","depth":0,"parameterNumber":3,"parameterNumberName":"V-component_of_WINDS"},"data":[0,0,0,-5.8105,-5.8109,-5.8277,-5.8278,-5.8509,-5.8511,0,0,0,0,0,0,0,0,0,0,0,-5.8069,-5.8071,-5.8104,-5.8109,-5.8277,-5.8278,-5.8508,-5.8511,0,0,0,0,0,0,0,0,0,0,0,-5.8068,-5.807,-5.8073,-5.811,-5.8277,-5.8278,-5.8508,-5.8374,0,0,0,0,0,0,0,0,0,0,-5.8208,-5.8189,-5.807,-5.8073,-5.8111,-5.8277,-5.8278,-5.8367,-5.8382,-5.844,0,-5.8499,0,-5.8509,-5.8528,-5.8529,0,0,0,-5.8098,-5.8176,-5.821,-5.8073,-5.8113,-5.8277,-5.8198,-5.8376,-5.8393,-5.8461,-5.8502,-5.851,-5.8513,-5.8529,-5.8531,-5.891,-5.8913,0,0,-5.8089,-5.8106,-5.8198,-5.8222,-5.8201,-5.8193,-5.8204,-5.8386,-5.8431,-5.8503,-5.8515,-5.8517,-5.8531,-5.8533,-5.8908,-5.8911,0,0,0,-5.807,-5.81,-5.8128,-5.8213,-5.8242,-5.8198,-5.821,-5.8423,-5.8431,-5.8518,-5.852,-5.8532,-5.8536,-5.8906,-5.8909,-5.9041,0,0,0,-5.8063,-5.8088,-5.8124,-5.8136,-5.8239,-5.8335,-5.8244,-5.8418,-5.8438,-5.8518,-5.8533,-5.8538,-5.8903,-5.8908,-5.9032,-5.91,0,0,0,-5.8053,-5.8087,-5.8116,-5.8137,-5.821,-5.8332,-5.835,-5.8422,-5.844,-5.8529,-5.8539,-5.8902,-5.8907,-5.9024,-5.9087,-5.9205,0,0,0,-5.8046,-5.823,-5.8119,-5.8324,-5.8209,-5.8413,-5.8349,-5.8499,-5.8591,-5.8534,-5.8904,-5.8909,-5.9021,-5.9078,-5.9197,-5.9308,-5.9357,0,0,-5.8287,-5.8259,-5.8379,-5.8284,-5.8513,-5.8386,-5.8632,-5.8699,-5.869,-5.8836,-5.8845,-5.9035,-5.9086,-5.9203,-5.9621,-5.9659,0,0,0,-5.8461,-5.8547,-5.8604,-5.8694,-5.8751,-5.8804,-5.8832,-5.8856,-5.898,-5.877,-5.9109,-5.9138,-5.9207,-5.9259,-5.9292,-5.9349,-5.8934,-5.8933,-5.8933,-5.8826,-5.8807,-5.9003,-5.9004,-5.9091,-5.9118,-5.9186,-5.9222,-5.9175,-5.9256,-5.9299,-5.9555,-5.9618,-5.9642,-5.9702,-5.9356,-5.9357,-5.9357,-5.9358,-5.9178,-5.9297,-5.9231,-5.9398,-5.9375,-5.9513,-5.9544,-5.9506,-5.9629,-5.9521,-5.958,-5.9464,-5.9685,-5.9736,-5.9367,-5.9366,-5.9364,-5.9364,-5.9363,-5.9416,-5.9469,-5.9497,-5.9624,-5.9724,-5.9716,-5.9838,-5.9812,-5.9787,-5.9846,-5.9888,-5.9886,-5.988,-5.9868,-5.9869,-5.987,-5.987,-5.9871,-5.9872,-5.9651,-5.9679,-5.9787,-5.9862,-5.9916,-5.9982,-6.0009,-6.006,-6.0109,-6.008,-6.008,-6.0024,-5.9711,-5.9633,-5.9885,-5.9883,-5.9881,-5.988,-5.9879,-6.0016,-5.9929,-6.0096,-6.015,-6.0235,-6.0335,-6.0299,-6.0405,-6.0442,-6.0503,-6.0434,-6.0207,-6.0176,-6.0149,-6.0085,-6.0439,-6.0439,-6.0439,-6.0439,-6.0216,-6.0198,-6.0363,-6.045,-6.0533,-6.0518,-6.0703,-6.0724,-6.0732,-6.0753,-6.0698,-6.0609,-6.0584,-6.0567,-6.0532,-6.0471,-6.0916,-6.0916,-6.0917,-6.0439,-6.0427,-6.0593,-6.0602,-6.0666,-6.0721,-6.0894,-6.0994,-6.0984,-6.0935,-6.0769,-6.0749,-6.0606,-6.056,-6.0509,-6.0455,-6.0342,0,0]}]]